Home > Weather > Faisalabad > Past weeks

Flag for Pakistan Weather for the Past 2 Weeks in Faisalabad, Pakistan

Now
90 °F

Broken clouds.


Feels Like: 88 °F
Forecast: 78 / 100 °F
Wind: 7 mph from Southwest

Location: Lahore Airport

Current Time: May 3, 2016 at 8:38:41 AM

Latest Report: May 3, 2016 at 7:25 AM


Visibility: 1 mi

Pressure: 29.68 "Hg

Humidity: 31%

Dew Point: 55 °F

Location of FaisalabadLocation

Historic Weather in Faisalabad — Graph

°F

Faisalabad Temperature Yesterday

Maximum temperature yesterday: 111 °F (at 2:55 PM)
Minimum temperature yesterday: 79 °F (at 4:55 AM)
Average temperature yesterday: 97 °F

High & Low Weather Summary for the Past Weeks

 TemperatureHumidityPressure
High111 °F (May 2, 2:55 PM)100% (Apr 21, 8:55 PM)30.01 "Hg (Apr 21, 8:55 PM)
Low68 °F (Apr 27, 1:55 AM)9% (Apr 30, 1:55 PM)29.56 "Hg (Apr 22, 3:55 PM)
Average88 °F31%29.71 "Hg
* Reported Apr 18 6:25 AM — May 3 6:25 AM, Faisalabad, Weather by CustomWeather, © 2016

Note: Actual official high and low records may vary slightly from our data, if they occured in-between our weather recording intervals... More about our weather records

Advertising

Faisalabad Weather History for the Previous 24 Hours

Scroll right to see more
 ConditionsComfort  
Time TempWeatherWind HumidityBarometerVisibility
6:25 AM
Tue, May 3
86 °FBroken clouds.9 mph40%29.68 "Hg1 mi
5:55 AM86 °FBroken clouds.7 mph40%29.68 "Hg1 mi
5:25 AM86 °FBroken clouds.7 mph33%29.65 "Hg2 mi
4:55 AM86 °FPartly cloudy.7 mph33%29.65 "Hg2 mi
4:25 AM86 °FPassing clouds.3 mph35%29.62 "Hg2 mi
4:00 AM88 °FPassing clouds.No wind33%29.59 "Hg2 mi
2:59 AM88 °FPassing clouds.3 mph33%29.59 "Hg2 mi
1:59 AM90 °FPassing clouds.5 mph29%29.59 "Hg2 mi
12:59 AM91 °FPassing clouds.6 mph28%29.62 "Hg2 mi
11:59 PM
Mon, May 2
93 °FPassing clouds.5 mph28%29.62 "Hg2 mi
11:29 PM93 °FPassing clouds.6 mph28%29.65 "Hg2 mi
10:59 PM93 °FPassing clouds.7 mph28%29.65 "Hg2 mi
10:29 PM95 °FPartly cloudy.3 mph25%29.65 "Hg2 mi
9:59 PM95 °FPartly cloudy.7 mph25%29.65 "Hg2 mi
9:29 PM97 °FPartly cloudy.8 mph22%29.65 "Hg1 mi
8:59 PM97 °FPartly cloudy.12 mph22%29.62 "Hg1 mi
8:25 PM97 °FPartly cloudy.17 mph20%29.62 "Hg1 mi
7:55 PM99 °FPartly cloudy.N/A17%29.62 "Hg1 mi
7:30 PM100 °FPartly cloudy.No wind16%29.56 "Hg2 mi
7:00 PM102 °FPartly cloudy.No wind15%29.56 "Hg2 mi
6:25 PM104 °FBroken clouds.No wind13%29.56 "Hg2 mi
5:55 PM106 °FBroken clouds.3 mph13%29.56 "Hg3 mi
5:25 PM108 °FScattered clouds.3 mph10%29.56 "Hg4 mi
4:55 PM109 °FScattered clouds.7 mph10%29.56 "Hg4 mi
4:25 PM109 °FScattered clouds.3 mph10%29.56 "Hg5 mi
3:55 PM109 °FScattered clouds.6 mph10%29.56 "Hg5 mi
3:25 PM111 °FPassing clouds.3 mph10%29.56 "Hg5 mi
2:55 PM111 °FPassing clouds.6 mph10%29.56 "Hg5 mi
2:25 PM109 °FPassing clouds.3 mph11%29.59 "Hg5 mi
1:55 PM109 °FPassing clouds.No wind11%29.59 "Hg4 mi
1:25 PM109 °FPassing clouds.8 mph12%29.62 "Hg4 mi
1:00 PM109 °FPassing clouds.3 mph12%29.62 "Hg4 mi
12:25 PM108 °FPassing clouds.6 mph16%29.62 "Hg4 mi
11:55 AM108 °FPassing clouds.No wind16%29.62 "Hg4 mi
11:25 AM106 °FPassing clouds.3 mph19%29.62 "Hg4 mi
9:55 AM100 °FHaze.7 mph21%29.65 "Hg3 mi
9:25 AM95 °FHaze.7 mph30%29.65 "Hg2 mi
8:55 AM93 °FHaze.6 mph32%29.65 "Hg2 mi
8:25 AM90 °FHaze.6 mph27%29.62 "Hg2 mi
Weather by CustomWeather, © 2016

See weather overviewHow to use our weather pages